sat.trackr.live / text

‹ back to catalog

STARLINK-32652

NORAD 62234 · 2024-231S

PAYLOAD ACTIVE UNKNOWN

§ Identity

Operator
Country
US
Launch date
2024-12-05
Launch site
AFWTR
Launch vehicle
Mass (kg)
RCS (m²)

Purposes: comms

External: N2YO · Heavens-Above · Gunter

§ Orbital elements

Epoch: 2026-09-21T13:59:17.485728Z

Period
94.01 min
Inclination
53.1590°
Eccentricity
0.0001018
Mean motion
15.31715250 rev/d
Perigee alt
470.0 km
Apogee alt
471.4 km
Semi-major
6,848.8 km
B*
3.7024e-4
RAAN
28.7911°
Arg perigee
94.6841°
Mean anomaly
265.4276°
Rev number
10,176

§ Raw data

STARLINK-326521 62234U 24231S   26264.58284127  .00011147  00000+0  37024-3 0  99982 62234  53.1590  28.7911 0001018  94.6841 265.4276 15.31715250101769

JSON: /api/v1/satellites/62234 · /tle

For live sub-satellite position, see the globe view (requires WebGL).

§ Visibility from observer

Set your observer location to see the next 7 days of passes ≥ 10°. The values pass through the URL so the page stays shareable.

No JS? Fill the form by hand. The geolocation button needs JavaScript.